Lid_Strength_Index
1 2 2 2 2 2 2 2 2 4 5 5 5 5 5 5 5 6 6 1 0 -1 -1 1 1 2 2 3 3 4 10 11 9 9 8 5 6 5 3 5 4 4 4 3 1
1 1 1 2 2 2 2 2 2 4 5 5 5 5 5 5 7 7 1 -1 -1 -1 1 2 4 3 5 5 4 6 9 10 6 6 7 6 6 5 6 6 5 5 3 2 2
1 1 2 2 2 2 2 2 2 4 5 5 5 5 5 5 7 5 -1 -1 -1 -1 0 1 2 3 6 5 5 6 8 6 6 5 5 6 6 4 6 7 5 6 4 3 2
1 2 2 2 2 2 2 2 2 4 5 5 5 5 5 6 8 1 -1 -1 -1 -0 1 2 3 5 7 8 5 8 5 5 5 4 5 6 5 5 5 5 4 3 3 3 3
2 2 2 3 3 3 3 3 3 3 5 5 5 5 6 7 5 -0 -1 -1 -0 1 2 3 5 5 8 6 6 7 6 5 4 5 5 4 6 6 5 4 3 3 3 3 3
2 2 2 3 3 3 3 3 3 3 4 5 5 6 6 8 0 -1 -0 0 1 1 2 3 5 4 6 7 7 6 5 5 5 5 5 6 6 5 5 4 4 4 4 3 3
2 3 3 3 3 3 4 3 3 3 3 2 4 5 6 4 0 -0 -0 1 0 1 3 2 2 5 5 8 5 5 7 6 6 5 6 5 7 7 4 4 4 4 4 3 3
3 3 3 4 4 4 4 4 4 3 2 2 3 5 5 2 0 1 0 1 0 0 1 1 2 4 6 5 7 9 9 12 7 6 6 6 10 6 4 5 5 4 4 3 3
3 3 4 4 4 4 4 4 3 2 1 1 3 5 5 1 3 2 0 2 1 1 1 2 2 5 7 10 11 11 15 13 10 6 7 8 9 6 4 5 5 5 4 4 4
3 3 4 4 4 4 4 4 2 2 2 1 2 3 2 4 2 2 0 1 3 3 3 5 4 6 9 12 17 14 14 12 12 8 7 9 8 6 5 5 5 5 4 4 4
3 4 4 4 4 4 4 2 4 5 4 5 4 3 3 1 1 2 1 2 2 3 6 5 8 9 8 8 8 10 11 13 9 7 7 9 8 7 5 5 5 5 5 4 4
3 4 4 4 5 5 4 4 4 4 6 4 4 3 2 1 4 3 1 4 5 7 5 6 8 6 6 8 8 9 11 11 9 7 9 11 10 7 6 6 5 5 5 4 4
4 4 4 4 5 4 3 3 2 3 7 5 5 4 3 3 4 4 3 4 6 7 7 7 7 5 6 7 8 7 8 9 10 10 9 11 12 11 6 5 5 5 4 4 4
4 4 4 5 4 3 3 2 2 2 8 7 6 5 4 4 5 2 2 4 5 8 7 7 5 6 6 7 7 9 6 7 8 10 16 11 18 13 10 8 6 5 5 4 4
4 4 4 5 3 3 2 2 2 3 12 6 6 3 3 5 4 4 2 3 7 7 6 8 7 7 7 7 6 7 6 7 7 8 13 13 14 13 10 11 8 6 5 4 4
5 5 5 3 2 1 1 2 3 9 11 7 6 6 6 5 5 4 4 3 3 5 5 6 4 6 6 5 5 5 6 6 7 8 12 11 13 14 12 11 9 6 5 4 4
5 6 6 2 2 1 3 4 9 11 6 7 7 6 6 6 6 5 6 6 7 8 8 7 6 5 5 7 6 6 7 11 12 12 12 8 11 12 9 8 8 8 5 4 3
6 7 4 2 1 1 4 7 12 8 8 6 7 6 8 6 6 6 7 7 5 6 8 9 10 6 5 6 8 8 7 10 14 13 12 9 13 12 7 6 5 5 4 4 4
7 2 2 1 1 2 6 10 9 7 6 7 8 8 7 7 6 6 6 7 6 5 8 8 9 5 5 5 5 8 9 6 9 9 11 10 11 8 7 7 6 5 6 6 5
4 3 4 4 2 4 7 10 7 6 7 7 9 8 8 7 7 7 7 6 6 5 5 6 9 6 5 5 5 6 6 9 9 14 14 11 12 11 10 8 8 8 7 6 5
3 4 5 3 3 6 9 8 6 5 6 7 8 8 8 7 7 7 7 6 5 5 5 6 7 7 6 7 7 7 8 8 8 9 12 12 12 8 8 8 9 8 7 6 6
3 6 4 3 7 7 9 7 9 6 6 6 6 6 6 6 7 7 7 6 4 5 6 5 7 9 8 6 5 6 7 7 10 11 9 10 12 6 7 7 7 8 8 7 6
4 5 4 5 9 8 7 7 6 6 5 6 6 5 5 6 8 6 6 5 4 5 6 5 7 10 9 7 6 7 6 6 7 7 9 11 13 7 7 7 7 7 7 8 8
4 6 6 6 6 7 6 7 6 5 5 5 6 5 6 7 5 7 6 5 5 5 3 3 7 8 10 9 7 8 7 7 7 9 9 9 12 9 8 8 7 7 7 7 8
4 5 4 7 6 6 6 6 6 6 5 4 5 6 6 7 7 7 6 6 5 6 4 5 8 7 7 7 7 8 8 7 8 8 9 8 9 10 8 7 7 6 7 7 7
5 5 4 5 6 5 7 6 7 6 6 6 6 6 5 7 6 7 6 6 7 5 5 5 8 7 8 7 7 8 7 7 7 7 7 7 10 7 6 6 7 6 6 7 7
2 2 4 6 5 6 6 6 6 5 5 4 5 5 6 5 4 4 4 4 5 6 6 6 7 8 10 8 8 10 8 8 7 7 7 9 9 7 8 7 6 6 5 5 5